Simultaneous Nadir Overpasses (SNOs) Predictions

Prediction of SNOs between GOES-17 and METOP-B Satellite Orbit:

Table of predicted SNOs for the next 14.0 days since TLE Epoch: 10/16/2023
Index Date Time (GOES-17) GOES-17 Lat,Lon METOP-B Lat,Lon Distance(km) Time Diff (sec)
1 10/16/2023 16:20:28 0.00,-104.71 -0.39,-102.83 213.21 80
2 10/18/2023 04:39:28 0.00,-104.69 -0.59,-107.44 312.76 80
3 10/19/2023 04:16:06 0.01,-104.68 0.48,-102.43 255.93 80
4 10/20/2023 16:34:56 -0.00,-104.69 0.49,-107.00 262.73 80
5 10/21/2023 16:16:55 0.00,-104.68 -0.58,-101.99 306.32 80
6 10/23/2023 04:35:53 -0.01,-104.66 -0.43,-106.59 219.36 80
7 10/24/2023 04:12:32 -0.01,-104.65 0.65,-101.58 349.43 80
8 10/25/2023 16:31:22 0.01,-104.66 0.31,-106.15 169.11 80
9 10/26/2023 16:13:21 0.00,-104.66 -0.78,-101.15 400.20 80
10 10/28/2023 04:32:18 -0.00,-104.65 -0.27,-105.74 124.70 80
11 10/29/2023 04:08:57 -0.00,-104.64 0.88,-100.75 444.41 80
